Regional Weather Roundup
Issued by NWS

Home |  Current Version |  Previous Version |  Text Only |  Print | Product List |  Glossary On
Versions: 1 2 3 4 5 6 7 8 9 10 11 12 13 14 15 16 17 18 19 20 21 22 23 24 25 26 27 28 29 30 31 32 33 34 35 36 37 38 39 40 41 42 43 44 45 46 47 48 49 50
132
ASUS43 KFSD 221110
RWRSD

WEATHER ROUNDUP FOR SOUTH DAKOTA
NATIONAL WEATHER SERVICE SIOUX FALLS SD
600 AM CDT SAT JUN 22 2024

NOTE: "FAIR" INDICATES FEW OR NO CLOUDS BELOW 12,000 FEET WITH NO
SIGNIFICANT WEATHER AND/OR OBSTRUCTIONS TO VISIBILITY.


SDZ001>005-009-010-012>017-221200-
NORTHWEST AND NORTH CENTRAL SOUTH DAKOTA

CITY           SKY/WX    TMP DP  RH WIND       PRES   REMARKS
BUFFALO          N/A     56  55  97 N13       29.93F TC  13
FAITH            N/A     63  63 100 N6        29.97R TC  17
MOBRIDGE       LGT RAIN  66  63  90 CALM      29.89S FOG     TC  19
$$

SDZ012>016-024>037-041>051-057-063-072>074-221200-
SOUTHWEST AND SOUTH CENTRAL SOUTH DAKOTA

CITY           SKY/WX    TMP DP  RH WIND       PRES   REMARKS
RAPID CTY ARPT CLEAR     59  56  89 NW10      29.99R TC  15
PIERRE         CLOUDY    65  65 100 NW6       29.88S TC  18
CUSTER         PTCLDY    51  49  92 NW5       30.09S TC  11
ELLSWORTH AFB  PTCLDY    58  56  93 N13       29.97R TC  14
PHILIP         MOCLDY    65  64  97 CALM      29.91S TC  18
PINE RIDGE     CLOUDY    64  62  93 W6        29.98R TC  18
SPEARFISH      CLEAR     54  54 100 W7        30.07R TC  12
WINNER         FOG       67  66  97 NW3       29.88S VSB 1/4 TC  19
$$

SDZ004>011-016>023-039-040-221200-
NORTHEAST SOUTH DAKOTA

CITY           SKY/WX    TMP DP  RH WIND       PRES   REMARKS
ABERDEEN       CLOUDY    67  63  87 NE6       29.87F TC  19
WATERTOWN      CLOUDY    64  63  96 CALM      29.88S FOG     TC  18
BROOKINGS      CLOUDY    64  64 100 E5        29.88S TC  18
SISSETON         N/A     65  64  97 E7        29.87S TC  18
$$

SDZ017-020-022-023-036>040-048>070-221200-
SOUTHEAST SOUTH DAKOTA

CITY           SKY/WX    TMP DP  RH WIND       PRES   REMARKS
SIOUX FALLS    CLOUDY    68  65  90 SE6       29.87R TC  20
HURON          CLOUDY    67  65  93 NE3       29.86S TC  19
CHAMBERLAIN    FOG       66  66 100 CALM      29.86F VSB 1/2 TC  19
MADISON          N/A     64  64 100 NE3       29.87S TC  18
MITCHELL       LGT RAIN  66  65  96 NE5       29.85S TC  19
YANKTON        LGT RAIN  69  69 100 SE3       29.85S FOG     TC  21
$$

ABBREVIATIONS USED IN REMARKS
   TC - TEMPERATURE IN CELSIUS
  WCI - WIND CHILL INDEX
   HX - HEAT INDEX
  VSB - VISIBILITY